This demonstration page uses our WeatherBlox Daily Observations layout. Learn more.

Left ArrowRight Arrow

Hourly Observations for June 21, 2018

Temp ( °F °C ) Dew Point ( °F °C ) Humidity (%) Winds ( mph kmh ) Pressure ( in mb ) Visibility ( mi km ) Precip ( " mm )
12:07 am 00:07 Cloudy 64 17.8 57 13.9 78 78 NW 13 20 29.83 1010 10 16 0.00 0.00
12:54 am 00:54 Cloudy 64 17.8 55 12.8 73 73 NW 18 30 29.82 1010 10 16 0.00 0.00
1:54 am 01:54 Cloudy 64 17.8 54 12.2 70 70 WNW 17 28 29.80 1009 10 16 0.00 0.00
2:54 am 02:54 Cloudy 64 17.8 55 12.8 73 73 NW 16 26 29.77 1008 10 16 0.00 0.00
3:54 am 03:54 Cloudy with Light Rain 63 17.2 57 13.9 81 81 WNW 14 22 29.77 1008 10 16 0.00 0.03
4:54 am 04:54 Cloudy with Light Rain 62 16.7 58 14.4 86 86 WNW 14 22 29.76 1008 9 14 0.03 0.76
5:54 am 05:54 Cloudy 62 16.7 58 14.4 86 86 WNW 16 26 29.75 1008 10 16 0.01 0.25
6:29 am 06:29 Cloudy 62 16.7 57 13.9 84 84 WNW 22 35 29.74 1007 10 16 0.00 0.03
6:54 am 06:54 Cloudy with Light Rain 62 16.7 57 13.9 84 84 WNW 21 33 29.74 1007 8 13 0.00 0.03
7:17 am 07:17 Cloudy with Light Rain 62 16.7 58 14.4 86 86 WNW 22 35 29.71 1006 3 5 0.00 0.03
7:26 am 07:26 Cloudy with Rain 62 16.7 59 15 90 90 W 20 31 29.71 1006 3 5 0.01 0.25
7:39 am 07:39 Cloudy with Light Rain 62 16.7 59 15 90 90 W 23 37 29.71 1006 3 5 0.03 0.76
7:41 am 07:41 Cloudy with Light Rain 62 16.7 59 15 90 90 W 23 37 29.71 1006 3 4 0.04 1.02
7:50 am 07:50 Cloudy with Light Rain 63 17 59 15 88 88 WNW 22 35 29.71 1006 2 3 0.04 1.02
7:54 am 07:54 Cloudy with Light Rain 62 16.7 59 15 90 90 W 23 37 29.71 1006 2 3 0.04 1.02
8:42 am 08:42 Cloudy with Light Rain 61 16.1 59 15 93 93 NW 22 35 29.71 1006 2 2 0.04 1.02
8:54 am 08:54 Cloudy with Light Rain 62 16.7 59 15 90 90 NW 22 35 29.70 1006 2 3 0.04 1.02
9:04 am 09:04 Cloudy with Light Rain 62 16.7 59 15 90 90 NW 23 37 29.71 1006 3 5 0.00 0.03
9:38 am 09:38 Cloudy with Light Rain 63 17.2 59 15 87 87 NW 24 39 29.71 1006 7 11 0.01 0.25
9:54 am 09:54 Cloudy with Light Rain 63 17.2 59 15 87 87 NW 25 41 29.72 1006 6 10 0.01 0.25
10:54 am 10:54 Cloudy with Light Rain 66 18.9 60 15.6 81 81 NNW 23 37 29.74 1007 7 11 0.00 0.03
11:54 am 11:54 Cloudy 66 18.9 61 16.1 84 84 NNW 23 37 29.76 1008 8 13 0.00 0.03
12:16 pm 12:16 Cloudy 68 20 61 16.1 78 78 NNW 23 37 29.74 1007 10 16 0.00 0.03
12:41 pm 12:41 Cloudy with Light Rain 69 20.6 61 16.1 76 76 NNW 28 44 29.77 1008 10 16 0.00 0.03
12:54 pm 12:54 Cloudy 71 21.7 62 16.7 73 73 N 23 37 29.76 1008 10 16 0.00 0.03
1:54 pm 13:54 Cloudy 73 22.8 63 17.2 71 71 NNW 23 37 29.77 1008 10 16 0.00 0.00
2:26 pm 14:26 Cloudy 71 21.7 63 17.2 76 76 NNW 18 30 29.74 1007 10 16 0.00 0.00
2:45 pm 14:45 Cloudy 70 21.1 62 16.7 76 76 NNW 20 31 29.77 1008 10 16 0.00 0.00
2:54 pm 14:54 Cloudy 70 21.1 62 16.7 76 76 NNW 22 35 29.79 1009 10 16 0.00 0.00
3:39 pm 15:39 Cloudy 67 19.4 62 16.7 84 84 NNW 17 28 29.80 1009 8 13 0.00 0.00
3:54 pm 15:54 Cloudy 68 20 61 16.1 78 78 NNW 18 30 29.81 1010 10 16 0.00 0.00
4:18 pm 16:18 Cloudy 68 20 60 15.6 76 76 N 22 35 29.80 1009 10 16 0.00 0.00
4:54 pm 16:54 Cloudy 68 20 60 15.6 76 76 NNW 20 31 29.82 1010 10 16 0.00 0.00
5:54 pm 17:54 Cloudy 68 20 61 16.1 78 78 NNW 16 26 29.82 1010 10 16 0.00 0.00
6:44 pm 18:44 Cloudy 68 20 61 16.1 78 78 NNW 16 26 29.83 1010 10 16 0.00 0.00
6:54 pm 18:54 Cloudy 68 20 61 16.1 78 78 NNW 15 24 29.83 1010 10 16 0.00 0.00
7:11 pm 19:11 Cloudy 67 19.4 61 16.1 81 81 NW 14 22 29.83 1010 10 16 0.00 0.00
7:54 pm 19:54 Cloudy 67 19.4 61 16.1 81 81 NNW 17 28 29.85 1011 10 16 0.00 0.00
8:11 pm 20:11 Cloudy 67 19.4 61 16.1 81 81 NNW 15 24 29.85 1011 10 16 0.00 0.00
8:42 pm 20:42 Cloudy 66 18.9 61 16.1 84 84 NNW 15 24 29.85 1011 10 16 0.00 0.00
8:54 pm 20:54 Cloudy 66 18.9 61 16.1 84 84 NNW 13 20 29.86 1011 10 16 0.00 0.00
9:30 pm 21:30 Cloudy 66 18.9 61 16.1 84 84 NNW 15 24 29.85 1011 10 16 0.00 0.00
9:54 pm 21:54 Cloudy 66 18.9 60 15.6 81 81 NNW 12 19 29.87 1012 10 16 0.00 0.00
10:32 pm 22:32 Cloudy 66 18.9 61 16.1 84 84 NNW 10 17 29.88 1012 10 16 0.00 0.00
10:54 pm 22:54 Cloudy 65 18.3 61 16.1 87 87 N 7 11 29.88 1012 10 16 0.00 0.00
11:54 pm 23:54 Cloudy 65 18.3 61 16.1 87 87 N 10 17 29.88 1012 10 16 0.00 0.00

Powered by AerisWeather